Погода в Староалександровке

Россия / Оренбургская область     52°46′19″N   51°57′42″E
темп.,
°C
ветер,
м/с
пор.,
м/с
влажн.,
%
обл.,
%
осадки,
мм/ч
давл.,
гПа
погр.,
м
5 августа, чт
чт523:00+27сз71247100 0.0 1010405
02:00+23с4106271 0.0 1010315
05:00+20с4779100 0.0 1011222
08:00+21сз56780 0.1 1012340
11:00+25ссз7753100 0.1 1012925
14:00+29ссз6636100 0.0 10121856
17:00+30ссз66250 0.0 10112862
20:00+28ссз682528 0.0 10121235
6 августа, пт
пт623:00+22ссз51036100 0.0 1013272
02:00+17сз486394 0.0 1014145
05:00+16сз35710 0.0 101482
08:00+19ссз35560 0.0 1015220
11:00+25с45364 0.0 10151766
14:00+28с45262 0.0 10142402
17:00+29с552181 0.0 10142610
20:00+27ссв46232 0.0 1014503
7 августа, сб
сб723:00+19с333613 0.0 101535
02:00+17ссв334393 0.0 101625
05:00+15всв22445 0.0 101716
08:00+19в353729 0.0 1017177
11:00+25всв33254 0.0 10171102
14:00+29ссв44225 0.0 10161679
17:00+31ссв44230 0.0 10162038
20:00+29св34285 0.0 1016195
8 августа, вс
вс823:00+21св39476 0.0 1017152
02:00+18всв22538 0.0 101826
05:00+17всв225899 0.0 101923
08:00+19всв34476 0.0 1019187
11:00+27всв4430100 0.0 1019796
14:00+31св4526100 0.0 10181675
17:00+32ссв44245 0.0 10172130
20:00+30ссв3428100 0.0 1017165
9 августа, пн
пн923:00+23всв3342100 0.0 101833
02:00+21в384699 0.0 1018136
05:00+19вюв2245100 0.0 101926
08:00+22вюв3435100 0.0 1019162
11:00+26в4526100 0.0 1019646
14:00+30всв452591 0.0 10181343
17:00+31всв452494 0.0 10171702
20:00+30всв572533 0.0 1016593